Time,TemperatureF,DewpointF,PressureIn,WindDirection,WindDirectionDegrees,WindSpeedMPH,WindSpeedGustMPH,Humidity,HourlyPrecipIn,Conditions,Clouds,dailyrainin,SolarRadiationWatts/m^2,SoftwareType,DateUTC
2013-05-23 00:01:00,52.5,51.7,29.86,North,5,1.5,2.3,97,0.00,RA,FEW,0.00,0.0,WeatherDisplay:10.37,2013-05-23 04:01:00,
2013-05-23 00:06:00,52.6,51.8,29.86,North,360,1.3,2.0,97,0.00,RA,FEW,0.00,0.0,WeatherDisplay:10.37,2013-05-23 04:06:00,
2013-05-23 00:11:00,52.4,51.6,29.87,North,360,0.8,1.2,97,0.00,CLR,FEW,0.00,0.0,WeatherDisplay:10.37,2013-05-23 04:11:00,
2013-05-23 00:16:00,52.5,51.7,29.87,NNW,336,1.2,2.3,97,0.00,CLR,FEW,0.00,0.0,WeatherDisplay:10.37,2013-05-23 04:16:00,
2013-05-23 00:21:00,52.5,51.7,29.87,WNW,292,1.8,3.5,97,0.00,CLR,FEW,0.00,0.0,WeatherDisplay:10.37,2013-05-23 04:21:00,
2013-05-23 00:26:00,52.4,51.6,29.86,East,79,0.4,1.2,97,0.00,CLR,FEW,0.00,0.0,WeatherDisplay:10.37,2013-05-23 04:26:00,
2013-05-23 00:31:00,52.4,51.6,29.86,East,79,0.0,1.2,97,0.00,CLR,FEW,0.00,0.0,WeatherDisplay:10.37,2013-05-23 04:31:00,
2013-05-23 00:36:00,52.4,51.6,29.86,NE,46,0.1,2.3,97,0.00,CLR,FEW,0.00,0.0,WeatherDisplay:10.37,2013-05-23 04:36:00,
2013-05-23 00:41:00,52.4,51.6,29.86,North,349,1.4,3.5,97,0.00,CLR,FEW,0.00,0.0,WeatherDisplay:10.37,2013-05-23 04:41:00,
2013-05-23 00:46:00,52.4,51.6,29.86,West,271,0.9,1.2,97,0.00,CLR,FEW,0.00,0.0,WeatherDisplay:10.37,2013-05-23 04:46:00,
2013-05-23 00:51:00,52.3,51.5,29.86,West,271,0.8,1.2,97,0.00,CLR,FEW,0.00,0.0,WeatherDisplay:10.37,2013-05-23 04:51:00,
2013-05-23 00:56:00,52.3,51.5,29.86,WNW,283,0.3,1.2,97,0.00,CLR,FEW,0.00,0.0,WeatherDisplay:10.37,2013-05-23 04:56:00,
2013-05-23 01:01:00,52.2,51.4,29.86,NNE,20,0.2,3.5,97,0.00,CLR,FEW,0.00,0.0,WeatherDisplay:10.37,2013-05-23 05:01:00,
2013-05-23 01:06:00,52.2,51.4,29.86,NNE,15,0.7,2.3,97,0.00,CLR,FEW,0.00,0.0,WeatherDisplay:10.37,2013-05-23 05:06:00,
2013-05-23 01:11:00,52.2,51.4,29.85,NNE,14,0.0,0.0,97,0.00,CLR,FEW,0.00,0.0,WeatherDisplay:10.37,2013-05-23 05:11:00,
2013-05-23 01:16:00,52.2,51.4,29.85,NNE,15,0.6,2.3,97,0.00,CLR,FEW,0.00,0.0,WeatherDisplay:10.37,2013-05-23 05:16:00,
2013-05-23 01:21:00,52.2,51.4,29.85,NNE,14,0.0,1.2,97,0.00,CLR,FEW,0.00,0.0,WeatherDisplay:10.37,2013-05-23 05:21:00,
2013-05-23 01:26:00,52.2,51.4,29.85,NNE,15,1.4,2.3,97,0.00,CLR,FEW,0.00,0.0,WeatherDisplay:10.37,2013-05-23 05:26:00,
2013-05-23 01:31:00,52.2,51.4,29.85,NNE,14,1.8,2.3,97,0.00,CLR,FEW,0.00,0.0,WeatherDisplay:10.37,2013-05-23 05:31:00,
2013-05-23 01:36:00,52.1,51.3,29.85,NNE,15,0.5,2.3,97,0.00,CLR,FEW,0.00,0.0,WeatherDisplay:10.37,2013-05-23 05:36:00,
2013-05-23 01:41:00,52.1,51.3,29.85,NNE,14,0.4,1.2,97,0.00,CLR,FEW,0.00,0.0,WeatherDisplay:10.37,2013-05-23 05:41:00,
2013-05-23 01:46:00,52.1,51.3,29.85,NNE,15,0.0,0.0,97,0.00,CLR,FEW,0.00,0.0,WeatherDisplay:10.37,2013-05-23 05:46:00,
2013-05-23 01:51:00,52.0,51.2,29.85,NNE,14,0.5,1.2,97,0.00,CLR,FEW,0.00,0.0,WeatherDisplay:10.37,2013-05-23 05:51:00,
2013-05-23 01:56:00,52.1,51.3,29.85,NNE,14,0.3,2.3,97,0.00,CLR,FEW,0.00,0.0,WeatherDisplay:10.37,2013-05-23 05:56:00,
2013-05-23 02:01:00,52.0,51.2,29.85,NNE,14,2.1,2.3,97,0.00,CLR,FEW,0.00,0.0,WeatherDisplay:10.37,2013-05-23 06:01:00,
2013-05-23 02:06:00,51.8,51.0,29.85,NNE,15,0.1,1.2,97,0.00,CLR,FEW,0.00,0.0,WeatherDisplay:10.37,2013-05-23 06:06:00,
2013-05-23 02:11:00,51.9,51.1,29.83,NNE,15,0.0,1.2,97,0.00,CLR,FEW,0.00,0.0,WeatherDisplay:10.37,2013-05-23 06:11:00,
2013-05-23 02:16:00,51.9,51.1,29.83,NNE,15,1.0,2.3,97,0.00,CLR,FEW,0.00,0.0,WeatherDisplay:10.37,2013-05-23 06:16:00,
2013-05-23 02:21:00,51.8,51.0,29.83,NNE,15,0.5,2.0,97,0.00,CLR,FEW,0.00,0.0,WeatherDisplay:10.37,2013-05-23 06:21:00,
2013-05-23 02:26:00,51.7,50.9,29.82,ENE,75,0.1,3.5,97,0.00,CLR,FEW,0.00,0.0,WeatherDisplay:10.37,2013-05-23 06:26:00,
2013-05-23 02:32:00,51.7,50.6,29.82,ENE,74,1.3,2.3,96,0.00,CLR,FEW,0.00,0.0,WeatherDisplay:10.37,2013-05-23 06:32:00,
2013-05-23 02:37:00,51.7,50.9,29.82,SSW,193,0.9,2.0,97,0.00,CLR,FEW,0.00,0.0,WeatherDisplay:10.37,2013-05-23 06:37:00,
2013-05-23 02:42:00,51.7,50.9,29.82,SSE,163,0.9,1.2,97,0.00,CLR,FEW,0.00,0.0,WeatherDisplay:10.37,2013-05-23 06:42:00,
2013-05-23 02:47:00,51.6,50.8,29.82,NW,314,1.1,2.3,97,0.00,CLR,FEW,0.00,0.0,WeatherDisplay:10.37,2013-05-23 06:47:00,
2013-05-23 02:52:00,51.6,50.8,29.82,NW,321,2.1,3.5,97,0.00,CLR,FEW,0.00,0.0,WeatherDisplay:10.37,2013-05-23 06:52:00,
2013-05-23 02:57:00,51.5,50.7,29.81,NNW,329,0.1,1.2,97,0.00,CLR,FEW,0.00,0.0,WeatherDisplay:10.37,2013-05-23 06:57:00,
2013-05-23 03:02:00,51.5,50.7,29.81,NNW,329,0.5,1.2,97,0.00,CLR,FEW,0.00,0.0,WeatherDisplay:10.37,2013-05-23 07:02:00,
2013-05-23 03:07:00,51.5,50.7,29.81,NW,326,2.3,3.5,97,0.00,CLR,FEW,0.00,0.0,WeatherDisplay:10.37,2013-05-23 07:07:00,
2013-05-23 03:12:00,51.5,50.7,29.82,NW,326,1.3,2.3,97,0.00,CLR,FEW,0.00,0.0,WeatherDisplay:10.37,2013-05-23 07:12:00,
2013-05-23 03:17:00,51.4,50.6,29.82,NNW,330,0.6,1.2,97,0.00,CLR,FEW,0.00,0.0,WeatherDisplay:10.37,2013-05-23 07:17:00,
2013-05-23 03:22:00,51.3,50.5,29.82,NNW,340,1.3,2.3,97,0.00,CLR,FEW,0.00,0.0,WeatherDisplay:10.37,2013-05-23 07:22:00,
2013-05-23 03:27:00,51.2,50.4,29.82,NNW,340,0.2,2.3,97,0.00,CLR,FEW,0.00,0.0,WeatherDisplay:10.37,2013-05-23 07:27:00,
2013-05-23 03:32:00,51.3,50.5,29.82,NNW,340,0.0,0.0,97,0.00,CLR,FEW,0.00,0.0,WeatherDisplay:10.37,2013-05-23 07:32:00,
2013-05-23 03:37:00,51.4,50.6,29.82,NNW,340,0.0,0.0,97,0.00,CLR,FEW,0.00,0.0,WeatherDisplay:10.37,2013-05-23 07:37:00,
2013-05-23 03:42:00,51.4,50.6,29.81,NNW,340,0.3,1.2,97,0.00,CLR,FEW,0.00,0.0,WeatherDisplay:10.37,2013-05-23 07:42:00,
2013-05-23 03:47:00,51.4,50.6,29.81,NNW,340,0.0,0.0,97,0.00,CLR,FEW,0.00,0.0,WeatherDisplay:10.37,2013-05-23 07:47:00,
2013-05-23 03:52:00,51.3,50.5,29.81,NNW,340,0.9,2.0,97,0.00,CLR,FEW,0.00,0.0,WeatherDisplay:10.37,2013-05-23 07:52:00,
2013-05-23 03:57:00,51.3,50.5,29.81,NNW,340,0.0,0.0,97,0.00,CLR,FEW,0.00,0.0,WeatherDisplay:10.37,2013-05-23 07:57:00,
2013-05-23 04:02:00,51.4,50.6,29.81,NNW,340,0.0,0.0,97,0.00,CLR,FEW,0.00,0.0,WeatherDisplay:10.37,2013-05-23 08:02:00,
2013-05-23 04:07:00,51.4,50.6,29.81,NNW,340,0.2,1.2,97,0.00,CLR,FEW,0.00,0.0,WeatherDisplay:10.37,2013-05-23 08:07:00,
2013-05-23 04:12:00,51.4,50.6,29.81,NNW,340,0.4,1.0,97,0.00,CLR,FEW,0.00,0.0,WeatherDisplay:10.37,2013-05-23 08:12:00,
2013-05-23 04:17:00,51.4,50.6,29.81,NNW,340,0.3,1.2,97,0.00,CLR,FEW,0.00,0.0,WeatherDisplay:10.37,2013-05-23 08:17:00,
2013-05-23 04:22:00,51.3,50.5,29.81,NNW,340,1.7,2.3,97,0.00,CLR,FEW,0.00,0.0,WeatherDisplay:10.37,2013-05-23 08:22:00,
2013-05-23 04:27:00,51.3,50.5,29.81,NNW,340,0.5,2.3,97,0.00,CLR,FEW,0.00,0.0,WeatherDisplay:10.37,2013-05-23 08:27:00,
2013-05-23 04:32:00,51.3,50.5,29.81,NNW,340,0.1,2.3,97,0.00,CLR,FEW,0.00,0.0,WeatherDisplay:10.37,2013-05-23 08:32:00,
2013-05-23 04:37:00,51.3,50.5,29.81,NNW,340,0.5,2.3,97,0.00,CLR,FEW,0.00,0.0,WeatherDisplay:10.37,2013-05-23 08:37:00,
2013-05-23 04:42:00,51.3,50.5,29.81,NNW,340,1.8,2.3,97,0.00,CLR,FEW,0.00,0.0,WeatherDisplay:10.37,2013-05-23 08:42:00,
2013-05-23 04:47:00,51.2,50.4,29.81,NNW,340,1.2,1.2,97,0.00,CLR,FEW,0.00,0.0,WeatherDisplay:10.37,2013-05-23 08:47:00,
2013-05-23 04:52:00,51.3,50.5,29.81,NNW,340,0.2,1.2,97,0.00,CLR,FEW,0.00,0.0,WeatherDisplay:10.37,2013-05-23 08:52:00,
2013-05-23 04:57:00,51.3,50.5,29.81,North,5,0.6,2.0,97,0.00,CLR,FEW,0.00,0.0,WeatherDisplay:10.37,2013-05-23 08:57:00,
2013-05-23 05:02:00,51.2,50.4,29.81,ENE,76,0.6,2.3,97,0.00,CLR,FEW,0.00,0.0,WeatherDisplay:10.37,2013-05-23 09:02:00,
2013-05-23 05:07:00,51.2,50.4,29.81,ENE,73,0.9,1.2,97,0.00,CLR,FEW,0.00,0.0,WeatherDisplay:10.37,2013-05-23 09:07:00,
2013-05-23 05:12:00,51.2,50.4,29.81,ENE,67,0.7,3.5,97,0.00,CLR,FEW,0.00,0.0,WeatherDisplay:10.37,2013-05-23 09:12:00,
2013-05-23 05:17:00,51.2,50.4,29.81,ENE,67,0.0,1.2,97,0.00,CLR,FEW,0.00,0.0,WeatherDisplay:10.37,2013-05-23 09:17:00,
2013-05-23 05:22:00,51.2,50.4,29.81,ENE,67,0.2,1.2,97,0.00,CLR,FEW,0.00,0.0,WeatherDisplay:10.37,2013-05-23 09:22:00,
2013-05-23 05:27:00,51.2,50.4,29.81,ENE,67,0.2,1.2,97,0.00,CLR,FEW,0.00,0.0,WeatherDisplay:10.37,2013-05-23 09:27:00,
2013-05-23 05:32:00,51.1,50.3,29.81,ENE,67,0.0,1.2,97,0.00,BKN,FEW,0.00,5.0,WeatherDisplay:10.37,2013-05-23 09:32:00,
2013-05-23 05:37:00,51.1,50.3,29.82,ENE,67,0.0,1.0,97,0.00,BKN,FEW,0.00,7.0,WeatherDisplay:10.37,2013-05-23 09:37:00,
2013-05-23 05:42:00,51.1,50.3,29.82,ENE,67,0.1,1.2,97,0.00,BKN,FEW,0.00,9.0,WeatherDisplay:10.37,2013-05-23 09:42:00,
2013-05-23 05:47:00,51.1,50.3,29.82,ENE,67,0.0,0.0,97,0.00,BKN,FEW,0.00,11.0,WeatherDisplay:10.37,2013-05-23 09:47:00,
2013-05-23 05:53:00,51.2,50.4,29.82,ENE,67,0.0,0.0,97,0.00,BKN,FEW,0.00,9.0,WeatherDisplay:10.37,2013-05-23 09:53:00,
2013-05-23 05:58:00,51.1,50.3,29.82,ENE,67,0.1,0.0,97,0.00,BKN,FEW,0.00,16.0,WeatherDisplay:10.37,2013-05-23 09:58:00,
2013-05-23 06:03:00,51.1,50.3,29.82,ENE,67,0.0,0.0,97,0.00,BKN,FEW,0.00,26.0,WeatherDisplay:10.37,2013-05-23 10:03:00,
2013-05-23 06:08:00,51.1,50.3,29.82,ENE,67,0.0,0.0,97,0.00,BKN,FEW,0.00,19.0,WeatherDisplay:10.37,2013-05-23 10:08:00,
2013-05-23 06:13:00,51.2,50.4,29.82,ENE,67,0.0,0.0,97,0.00,BKN,FEW,0.00,33.0,WeatherDisplay:10.37,2013-05-23 10:13:00,
2013-05-23 06:18:00,51.3,50.5,29.82,ENE,67,0.1,1.0,97,0.00,BKN,FEW,0.00,40.0,WeatherDisplay:10.37,2013-05-23 10:18:00,
2013-05-23 06:23:00,51.3,50.5,29.82,ENE,67,0.7,1.2,97,0.00,BKN,FEW,0.00,33.0,WeatherDisplay:10.37,2013-05-23 10:23:00,
2013-05-23 06:28:00,51.4,50.6,29.82,ENE,67,0.1,1.2,97,0.00,BKN,FEW,0.00,33.0,WeatherDisplay:10.37,2013-05-23 10:28:00,
2013-05-23 06:33:00,51.4,50.6,29.82,ENE,67,0.0,0.0,97,0.00,BKN,FEW,0.00,28.0,WeatherDisplay:10.37,2013-05-23 10:33:00,
2013-05-23 06:38:00,51.4,50.6,29.82,ENE,67,0.1,1.2,97,0.00,BKN,FEW,0.00,25.0,WeatherDisplay:10.37,2013-05-23 10:38:00,
2013-05-23 06:43:00,51.4,50.6,29.82,ENE,67,0.2,1.2,97,0.00,BKN,FEW,0.00,26.0,WeatherDisplay:10.37,2013-05-23 10:43:00,
2013-05-23 06:48:00,51.4,50.6,29.82,ENE,67,0.0,1.0,97,0.00,BKN,FEW,0.00,25.0,WeatherDisplay:10.37,2013-05-23 10:48:00,
2013-05-23 06:53:00,51.5,50.7,29.83,ENE,67,0.1,1.2,97,0.00,BKN,FEW,0.00,35.0,WeatherDisplay:10.37,2013-05-23 10:53:00,
2013-05-23 06:58:00,51.6,50.8,29.83,ENE,67,0.4,1.2,97,0.00,BKN,FEW,0.00,39.0,WeatherDisplay:10.37,2013-05-23 10:58:00,
2013-05-23 07:03:00,51.6,50.8,29.83,ENE,67,0.0,0.0,97,0.00,BKN,FEW,0.00,46.0,WeatherDisplay:10.37,2013-05-23 11:03:00,
2013-05-23 07:08:00,51.7,50.9,29.83,ENE,67,0.0,1.2,97,0.00,BKN,FEW,0.00,56.0,WeatherDisplay:10.37,2013-05-23 11:08:00,
2013-05-23 07:13:00,51.7,50.9,29.83,ENE,67,0.0,0.0,97,0.00,BKN,FEW,0.00,56.0,WeatherDisplay:10.37,2013-05-23 11:13:00,
2013-05-23 07:18:00,51.8,51.0,29.83,ENE,67,0.7,1.2,97,0.00,BKN,FEW,0.00,81.0,WeatherDisplay:10.37,2013-05-23 11:18:00,
2013-05-23 07:23:00,51.8,51.0,29.83,ENE,67,0.0,0.0,97,0.00,BKN,FEW,0.00,77.0,WeatherDisplay:10.37,2013-05-23 11:23:00,
2013-05-23 07:28:00,51.9,51.1,29.83,ENE,67,0.2,1.2,97,0.00,BKN,FEW,0.00,79.0,WeatherDisplay:10.37,2013-05-23 11:28:00,
2013-05-23 07:33:00,51.9,51.1,29.83,ENE,67,0.3,1.2,97,0.00,BKN,FEW,0.00,84.0,WeatherDisplay:10.37,2013-05-23 11:33:00,
2013-05-23 07:38:00,52.0,51.2,29.83,ENE,67,0.0,0.0,97,0.00,BKN,FEW,0.00,86.0,WeatherDisplay:10.37,2013-05-23 11:38:00,
2013-05-23 07:43:00,52.1,51.6,29.83,ENE,67,0.1,1.2,98,0.00,BKN,FEW,0.00,102.0,WeatherDisplay:10.37,2013-05-23 11:43:00,
2013-05-23 07:48:00,52.2,51.7,29.83,ENE,67,0.0,0.0,98,0.00,BKN,FEW,0.00,93.0,WeatherDisplay:10.37,2013-05-23 11:48:00,
2013-05-23 07:53:00,52.3,51.8,29.83,ENE,67,0.0,0.0,98,0.00,BKN,FEW,0.00,100.0,WeatherDisplay:10.37,2013-05-23 11:53:00,
2013-05-23 07:58:00,52.5,51.7,29.83,ENE,67,0.0,0.0,97,0.00,BKN,FEW,0.00,102.0,WeatherDisplay:10.37,2013-05-23 11:58:00,
2013-05-23 08:03:00,52.6,51.8,29.83,ENE,67,0.0,0.0,97,0.00,BKN,FEW,0.00,111.0,WeatherDisplay:10.37,2013-05-23 12:03:00,
2013-05-23 08:08:00,52.8,52.0,29.82,ENE,67,0.2,1.0,97,0.00,BKN,FEW,0.00,105.0,WeatherDisplay:10.37,2013-05-23 12:08:00,
2013-05-23 08:13:00,52.9,52.4,29.82,ENE,67,1.2,3.5,98,0.00,BKN,FEW,0.00,104.0,WeatherDisplay:10.37,2013-05-23 12:13:00,
2013-05-23 08:18:00,52.9,52.4,29.82,ENE,67,0.0,0.0,98,0.00,BKN,FEW,0.00,114.0,WeatherDisplay:10.37,2013-05-23 12:18:00,
2013-05-23 08:23:00,53.0,52.5,29.82,ENE,67,0.0,0.0,98,0.00,BKN,FEW,0.00,160.0,WeatherDisplay:10.37,2013-05-23 12:23:00,
2013-05-23 08:28:00,53.2,52.7,29.82,ENE,67,0.1,1.2,98,0.00,BKN,FEW,0.00,171.0,WeatherDisplay:10.37,2013-05-23 12:28:00,
2013-05-23 08:33:00,53.3,52.8,29.82,ENE,67,0.0,0.0,98,0.00,BKN,FEW,0.00,220.0,WeatherDisplay:10.37,2013-05-23 12:33:00,
2013-05-23 08:38:00,53.5,52.9,29.82,ENE,67,0.0,0.0,98,0.00,BKN,FEW,0.00,232.0,WeatherDisplay:10.37,2013-05-23 12:38:00,
2013-05-23 08:43:00,53.5,52.9,29.82,ENE,67,0.1,1.2,98,0.00,BKN,FEW,0.00,220.0,WeatherDisplay:10.37,2013-05-23 12:43:00,
2013-05-23 08:48:00,53.5,52.9,29.82,ENE,67,0.0,0.0,98,0.00,BKN,FEW,0.00,274.0,WeatherDisplay:10.37,2013-05-23 12:48:00,
2013-05-23 08:53:00,53.5,52.7,29.82,ENE,66,0.6,2.3,97,0.00,BKN,FEW,0.00,308.0,WeatherDisplay:10.37,2013-05-23 12:53:00,
2013-05-23 08:58:00,53.6,52.8,29.82,ENE,66,0.0,0.0,97,0.00,BKN,FEW,0.00,279.0,WeatherDisplay:10.37,2013-05-23 12:58:00,
2013-05-23 09:03:00,53.8,53.0,29.82,ENE,66,0.0,0.0,97,0.00,BKN,FEW,0.00,234.0,WeatherDisplay:10.37,2013-05-23 13:03:00,
2013-05-23 09:08:00,54.0,53.2,29.81,ENE,66,0.3,1.2,97,0.00,BKN,FEW,0.00,292.0,WeatherDisplay:10.37,2013-05-23 13:08:00,
2013-05-23 09:13:00,54.2,53.4,29.81,ENE,65,1.4,2.3,97,0.00,SCT,FEW,0.00,348.0,WeatherDisplay:10.37,2013-05-23 13:13:00,
2013-05-23 09:18:00,54.3,53.5,29.81,ENE,67,0.0,0.0,97,0.00,BKN,FEW,0.00,255.0,WeatherDisplay:10.37,2013-05-23 13:18:00,
2013-05-23 09:23:00,54.5,53.7,29.81,ENE,67,0.0,0.0,97,0.00,BKN,FEW,0.00,299.0,WeatherDisplay:10.37,2013-05-23 13:23:00,
2013-05-23 09:28:00,54.8,53.7,29.81,ENE,66,0.7,3.5,96,0.00,SCT,FEW,0.00,345.0,WeatherDisplay:10.37,2013-05-23 13:28:00,
2013-05-23 09:33:00,55.1,54.0,29.81,ENE,65,0.1,1.2,96,0.00,SCT,FEW,0.00,346.0,WeatherDisplay:10.37,2013-05-23 13:33:00,
2013-05-23 09:38:00,55.5,54.4,29.80,ENE,66,0.0,1.2,96,0.00,BKN,FEW,0.00,367.0,WeatherDisplay:10.37,2013-05-23 13:38:00,
2013-05-23 09:43:00,55.8,54.7,29.80,ENE,68,0.1,1.2,96,0.00,BKN,FEW,0.00,327.0,WeatherDisplay:10.37,2013-05-23 13:43:00,
2013-05-23 09:48:00,56.2,54.8,29.80,ENE,68,0.0,0.0,95,0.00,BKN,FEW,0.00,360.0,WeatherDisplay:10.37,2013-05-23 13:48:00,
2013-05-23 09:53:00,56.5,55.1,29.80,ENE,68,1.8,3.5,95,0.00,BKN,FEW,0.00,341.0,WeatherDisplay:10.37,2013-05-23 13:53:00,
2013-05-23 09:58:00,56.6,54.9,29.80,ENE,68,0.0,1.2,94,0.00,SCT,FEW,0.00,454.0,WeatherDisplay:10.37,2013-05-23 13:58:00,
2013-05-23 10:03:00,56.7,54.7,29.80,ENE,68,0.2,1.2,93,0.00,BKN,FEW,0.00,360.0,WeatherDisplay:10.37,2013-05-23 14:03:00,
2013-05-23 10:08:00,57.0,55.0,29.80,ENE,68,0.0,0.0,93,0.00,BKN,FEW,0.00,255.0,WeatherDisplay:10.37,2013-05-23 14:08:00,
2013-05-23 10:13:00,57.3,55.3,29.80,ENE,68,0.4,2.3,93,0.00,BKN,FEW,0.00,496.0,WeatherDisplay:10.37,2013-05-23 14:13:00,
2013-05-23 10:18:00,57.7,55.7,29.80,ENE,68,0.2,1.0,93,0.00,BKN,FEW,0.00,406.0,WeatherDisplay:10.37,2013-05-23 14:18:00,
2013-05-23 10:23:00,58.1,55.8,29.79,ENE,68,1.0,3.5,92,0.00,BKN,FEW,0.00,325.0,WeatherDisplay:10.37,2013-05-23 14:23:00,
2013-05-23 10:28:00,58.5,56.2,29.79,ENE,68,0.8,1.2,92,0.00,BKN,FEW,0.00,434.0,WeatherDisplay:10.37,2013-05-23 14:28:00,
2013-05-23 10:33:00,59.0,56.7,29.79,ENE,68,0.4,1.2,92,0.00,BKN,FEW,0.00,399.0,WeatherDisplay:10.37,2013-05-23 14:33:00,
2013-05-23 10:38:00,59.3,57.0,29.78,ENE,68,0.0,0.0,92,0.00,BKN,FEW,0.00,420.0,WeatherDisplay:10.37,2013-05-23 14:38:00,
2013-05-23 10:43:00,59.9,57.6,29.78,ENE,68,0.0,0.0,92,0.00,BKN,FEW,0.00,329.0,WeatherDisplay:10.37,2013-05-23 14:43:00,
2013-05-23 10:48:00,60.3,57.7,29.78,ENE,68,0.0,0.0,91,0.00,BKN,FEW,0.00,225.0,WeatherDisplay:10.37,2013-05-23 14:48:00,
2013-05-23 10:53:00,60.9,58.6,29.78,ENE,68,0.0,1.2,92,0.00,BKN,FEW,0.00,469.0,WeatherDisplay:10.37,2013-05-23 14:53:00,
2013-05-23 10:58:00,61.4,58.7,29.78,ENE,68,0.8,1.2,91,0.00,BKN,FEW,0.00,401.0,WeatherDisplay:10.37,2013-05-23 14:58:00,
2013-05-23 11:03:00,61.7,58.7,29.78,ENE,68,0.2,2.3,90,0.00,SCT,FEW,0.00,640.0,WeatherDisplay:10.37,2013-05-23 15:03:00,
2013-05-23 11:08:00,62.1,58.8,29.77,East,82,0.2,2.3,89,0.00,CLR,FEW,0.00,506.0,WeatherDisplay:10.37,2013-05-23 15:08:00,
2013-05-23 11:13:00,62.5,59.5,29.77,ENE,70,1.3,2.3,90,0.00,BKN,FEW,0.00,443.0,WeatherDisplay:10.37,2013-05-23 15:13:00,
2013-05-23 11:18:00,63.0,59.7,29.77,ENE,68,0.2,3.5,89,0.00,BKN,FEW,0.00,404.0,WeatherDisplay:10.37,2013-05-23 15:18:00,
2013-05-23 11:23:00,63.4,60.1,29.77,ENE,68,1.3,3.0,89,0.00,BKN,FEW,0.00,439.0,WeatherDisplay:10.37,2013-05-23 15:23:00,
2013-05-23 11:28:00,64.0,60.4,29.77,ENE,69,0.4,1.2,88,0.00,BKN,FEW,0.00,471.0,WeatherDisplay:10.37,2013-05-23 15:28:00,
2013-05-23 11:33:00,64.4,60.8,29.77,ENE,65,2.1,4.0,88,0.00,BKN,FEW,0.00,538.0,WeatherDisplay:10.37,2013-05-23 15:33:00,
2013-05-23 11:38:00,64.3,60.7,29.77,West,277,0.6,2.3,88,0.00,BKN,FEW,0.00,411.0,WeatherDisplay:10.37,2013-05-23 15:38:00,
2013-05-23 11:43:00,64.6,61.0,29.77,West,277,0.1,0.0,88,0.00,BKN,FEW,0.00,401.0,WeatherDisplay:10.37,2013-05-23 15:43:00,
2013-05-23 11:48:00,64.5,60.5,29.77,ENE,62,0.8,2.3,87,0.00,FEW,,0.00,564.0,WeatherDisplay:10.37,2013-05-23 15:48:00,
2013-05-23 11:53:00,64.7,60.7,29.76,East,88,0.3,3.0,87,0.00,BKN,FEW,0.00,513.0,WeatherDisplay:10.37,2013-05-23 15:53:00,
2013-05-23 11:58:00,64.9,60.9,29.76,SE,132,0.6,2.3,87,0.00,BKN,FEW,0.00,371.0,WeatherDisplay:10.37,2013-05-23 15:58:00,
2013-05-23 12:03:00,64.7,60.7,29.76,West,262,0.1,1.2,87,0.00,BKN,FEW,0.00,543.0,WeatherDisplay:10.37,2013-05-23 16:03:00,
2013-05-23 12:08:00,64.9,60.9,29.76,East,85,1.2,3.5,87,0.00,CLR,FEW,0.00,526.0,WeatherDisplay:10.37,2013-05-23 16:08:00,
2013-05-23 12:13:00,65.3,61.3,29.76,WSW,241,1.1,3.5,87,0.00,BKN,FEW,0.00,492.0,WeatherDisplay:10.37,2013-05-23 16:13:00,
2013-05-23 12:18:00,65.5,61.5,29.76,East,82,0.8,3.5,87,0.00,BKN,FEW,0.00,490.0,WeatherDisplay:10.37,2013-05-23 16:18:00,
2013-05-23 12:23:00,66.0,62.0,29.75,East,96,1.2,2.3,87,0.00,SCT,FEW,0.00,580.0,WeatherDisplay:10.37,2013-05-23 16:23:00,
2013-05-23 12:28:00,66.1,61.8,29.75,ENE,72,3.3,4.6,86,0.00,SCT,FEW,0.00,624.0,WeatherDisplay:10.37,2013-05-23 16:28:00,
2013-05-23 12:33:00,67.0,62.7,29.75,ENE,68,2.5,3.5,86,0.00,SCT,FEW,0.00,846.0,WeatherDisplay:10.37,2013-05-23 16:33:00,
2013-05-23 12:38:00,66.8,61.8,29.75,NE,39,0.7,3.5,84,0.00,BKN,FEW,0.00,425.0,WeatherDisplay:10.37,2013-05-23 16:38:00,
2013-05-23 12:43:00,66.3,61.7,29.75,ENE,67,1.0,2.3,85,0.00,BKN,FEW,0.00,459.0,WeatherDisplay:10.37,2013-05-23 16:43:00,
2013-05-23 12:48:00,66.1,61.8,29.75,ENE,69,0.5,2.3,86,0.00,BKN,FEW,0.00,503.0,WeatherDisplay:10.37,2013-05-23 16:48:00,
2013-05-23 12:53:00,66.2,62.2,29.75,East,100,0.1,1.2,87,0.00,BKN,FEW,0.00,454.0,WeatherDisplay:10.37,2013-05-23 16:53:00,
2013-05-23 12:58:00,65.7,61.4,29.75,ESE,109,0.8,2.0,86,0.00,BKN,FEW,0.00,411.0,WeatherDisplay:10.37,2013-05-23 16:58:00,
2013-05-23 13:03:00,65.7,61.7,29.75,NE,51,0.3,2.3,87,0.00,BKN,FEW,0.00,434.0,WeatherDisplay:10.37,2013-05-23 17:03:00,
2013-05-23 13:08:00,66.5,62.8,29.75,NE,42,0.2,1.2,88,0.00,BKN,FEW,0.00,376.0,WeatherDisplay:10.37,2013-05-23 17:08:00,
2013-05-23 13:14:00,66.6,62.3,29.75,ENE,76,0.1,1.2,86,0.00,BKN,FEW,0.00,415.0,WeatherDisplay:10.37,2013-05-23 17:14:00,
2013-05-23 13:19:00,66.8,62.5,29.75,SSE,153,0.4,2.3,86,0.00,BKN,FEW,0.00,475.0,WeatherDisplay:10.37,2013-05-23 17:19:00,
2013-05-23 13:24:00,66.6,61.9,29.74,WSW,244,1.6,3.5,85,0.00,SCT,FEW,0.00,536.0,WeatherDisplay:10.37,2013-05-23 17:24:00,
2013-05-23 13:29:00,66.8,62.5,29.74,East,85,1.2,3.5,86,0.00,SCT,FEW,0.00,568.0,WeatherDisplay:10.37,2013-05-23 17:29:00,
2013-05-23 13:34:00,67.1,62.4,29.74,East,91,0.7,2.3,85,0.00,SCT,FEW,0.00,689.0,WeatherDisplay:10.37,2013-05-23 17:34:00,
2013-05-23 13:39:00,67.4,62.7,29.74,NNE,19,0.3,2.3,85,0.00,SCT,FEW,0.00,424.0,WeatherDisplay:10.37,2013-05-23 17:39:00,
2013-05-23 13:44:00,68.0,63.3,29.74,NNE,18,0.0,1.2,85,0.00,BKN,FEW,0.00,381.0,WeatherDisplay:10.37,2013-05-23 17:44:00,
2013-05-23 13:49:00,68.1,63.1,29.74,East,93,0.5,2.3,84,0.00,BKN,FEW,0.00,436.0,WeatherDisplay:10.37,2013-05-23 17:49:00,
2013-05-23 13:54:00,68.2,63.5,29.73,East,88,0.3,1.2,85,0.00,BKN,FEW,0.00,352.0,WeatherDisplay:10.37,2013-05-23 17:54:00,
2013-05-23 13:59:00,68.0,63.3,29.73,East,89,0.0,1.0,85,0.00,BKN,FEW,0.00,401.0,WeatherDisplay:10.37,2013-05-23 17:59:00,
2013-05-23 14:04:00,68.1,63.4,29.73,East,89,0.3,1.2,85,0.00,BKN,FEW,0.00,360.0,WeatherDisplay:10.37,2013-05-23 18:04:00,
2013-05-23 14:09:00,68.5,63.8,29.72,ENE,72,0.6,3.5,85,0.00,SCT,FEW,0.00,508.0,WeatherDisplay:10.37,2013-05-23 18:09:00,
2013-05-23 14:14:00,68.4,63.7,29.72,NE,45,0.8,2.3,85,0.00,SCT,FEW,0.00,504.0,WeatherDisplay:10.37,2013-05-23 18:14:00,
2013-05-23 14:19:00,68.7,64.0,29.72,NE,46,0.0,0.0,85,0.00,BKN,FEW,0.00,283.0,WeatherDisplay:10.37,2013-05-23 18:19:00,
2013-05-23 14:24:00,68.8,64.4,29.73,ENE,61,1.1,2.3,86,0.00,BKN,FEW,0.00,272.0,WeatherDisplay:10.37,2013-05-23 18:24:00,
2013-05-23 14:29:00,68.6,64.2,29.73,East,90,1.3,2.3,86,0.00,BKN,FEW,0.00,350.0,WeatherDisplay:10.37,2013-05-23 18:29:00,
2013-05-23 14:34:00,68.7,64.0,29.73,East,90,0.3,1.2,85,0.00,BKN,FEW,0.00,383.0,WeatherDisplay:10.37,2013-05-23 18:34:00,
2013-05-23 14:39:00,69.0,64.3,29.72,East,86,2.0,3.5,85,0.00,BKN,FEW,0.00,446.0,WeatherDisplay:10.37,2013-05-23 18:39:00,
2013-05-23 14:44:00,69.7,64.6,29.72,East,87,1.4,3.5,84,0.00,BKN,FEW,0.00,448.0,WeatherDisplay:10.37,2013-05-23 18:44:00,
2013-05-23 14:49:00,69.9,64.5,29.72,WNW,296,0.0,0.0,83,0.00,BKN,FEW,0.00,336.0,WeatherDisplay:10.37,2013-05-23 18:49:00,
2013-05-23 14:54:00,69.7,65.3,29.72,NNW,341,0.1,1.2,86,0.00,BKN,FEW,0.00,294.0,WeatherDisplay:10.37,2013-05-23 18:54:00,
2013-05-23 14:59:00,69.5,65.1,29.72,NNW,342,0.2,1.2,86,0.00,BKN,FEW,0.00,295.0,WeatherDisplay:10.37,2013-05-23 18:59:00,
2013-05-23 15:04:00,69.6,65.2,29.72,NNW,342,0.0,0.0,86,0.00,BKN,FEW,0.00,257.0,WeatherDisplay:10.37,2013-05-23 19:04:00,
2013-05-23 15:09:00,69.3,65.3,29.71,NNW,342,0.9,2.3,87,0.00,BKN,FEW,0.00,327.0,WeatherDisplay:10.37,2013-05-23 19:09:00,
2013-05-23 15:14:00,69.4,64.7,29.71,East,97,0.1,2.3,85,0.00,BKN,FEW,0.00,360.0,WeatherDisplay:10.37,2013-05-23 19:14:00,
2013-05-23 15:19:00,69.5,65.1,29.71,East,79,0.8,2.3,86,0.00,BKN,FEW,0.00,350.0,WeatherDisplay:10.37,2013-05-23 19:19:00,
2013-05-23 15:24:00,69.8,65.4,29.71,NE,46,0.4,1.2,86,0.00,BKN,FEW,0.00,269.0,WeatherDisplay:10.37,2013-05-23 19:24:00,
2013-05-23 15:29:00,69.8,65.1,29.71,East,99,0.6,3.5,85,0.00,BKN,FEW,0.00,255.0,WeatherDisplay:10.37,2013-05-23 19:29:00,
2013-05-23 15:34:00,69.9,65.5,29.71,NE,52,0.0,0.0,86,0.00,BKN,FEW,0.00,221.0,WeatherDisplay:10.37,2013-05-23 19:34:00,
2013-05-23 15:39:00,69.9,65.2,29.70,NE,52,0.3,2.3,85,0.00,BKN,FEW,0.00,216.0,WeatherDisplay:10.37,2013-05-23 19:39:00,
2013-05-23 15:44:00,69.8,65.4,29.70,East,95,0.6,2.3,86,0.00,BKN,FEW,0.00,178.0,WeatherDisplay:10.37,2013-05-23 19:44:00,
2013-05-23 15:49:00,69.9,65.9,29.70,ESE,104,1.2,2.3,87,0.00,BKN,FEW,0.00,199.0,WeatherDisplay:10.37,2013-05-23 19:49:00,
2013-05-23 15:54:00,69.8,66.4,29.71,ESE,104,0.0,0.0,89,0.00,BKN,FEW,0.00,211.0,WeatherDisplay:10.37,2013-05-23 19:54:00,
2013-05-23 15:59:00,69.3,66.2,29.71,East,83,1.9,4.0,90,0.00,BKN,FEW,0.00,220.0,WeatherDisplay:10.37,2013-05-23 19:59:00,
2013-05-23 16:04:00,69.3,66.6,29.71,East,86,0.9,3.0,91,0.00,BKN,FEW,0.00,211.0,WeatherDisplay:10.37,2013-05-23 20:04:00,
2013-05-23 16:09:00,69.4,66.7,29.72,East,86,0.5,1.2,91,0.00,BKN,FEW,0.00,207.0,WeatherDisplay:10.37,2013-05-23 20:09:00,
2013-05-23 16:14:00,69.5,66.8,29.72,East,87,1.1,3.5,91,0.00,BKN,FEW,0.00,160.0,WeatherDisplay:10.37,2013-05-23 20:14:00,
2013-05-23 16:19:00,69.5,66.4,29.72,NE,49,0.7,2.3,90,0.00,BKN,FEW,0.00,130.0,WeatherDisplay:10.37,2013-05-23 20:19:00,
2013-05-23 16:24:00,69.1,66.0,29.72,ENE,62,0.0,0.0,90,0.00,BKN,FEW,0.00,77.0,WeatherDisplay:10.37,2013-05-23 20:24:00,
2013-05-23 16:29:00,68.6,65.5,29.72,WNW,302,1.5,3.5,90,0.00,BKN,FEW,0.00,62.0,WeatherDisplay:10.37,2013-05-23 20:29:00,
2013-05-23 16:34:00,68.2,65.5,29.72,NW,323,0.6,1.2,91,0.00,BKN,FEW,0.00,51.0,WeatherDisplay:10.37,2013-05-23 20:34:00,
2013-05-23 16:39:00,67.7,65.6,29.72,NW,323,0.5,2.3,93,0.01,RA,FEW,0.01,67.0,WeatherDisplay:10.37,2013-05-23 20:39:00,
2013-05-23 16:44:00,67.4,65.6,29.72,NW,323,0.0,1.2,94,0.01,RA,FEW,0.01,67.0,WeatherDisplay:10.37,2013-05-23 20:44:00,
2013-05-23 16:49:00,67.0,65.5,29.72,NNE,18,0.0,1.2,95,0.02,RA,FEW,0.02,51.0,WeatherDisplay:10.37,2013-05-23 20:49:00,
2013-05-23 16:54:00,66.9,65.4,29.73,NNE,19,0.0,0.0,95,0.02,RA,FEW,0.02,53.0,WeatherDisplay:10.37,2013-05-23 20:54:00,
2013-05-23 16:59:00,66.7,65.5,29.73,NNE,18,0.4,2.3,96,0.03,RA,FEW,0.03,42.0,WeatherDisplay:10.37,2013-05-23 20:59:00,
2013-05-23 17:04:00,66.8,65.6,29.73,NNE,18,0.0,0.0,96,0.04,RA,FEW,0.04,30.0,WeatherDisplay:10.37,2013-05-23 21:04:00,
2013-05-23 17:09:00,66.6,65.4,29.72,ENE,59,0.0,1.0,96,0.05,RA,FEW,0.05,47.0,WeatherDisplay:10.37,2013-05-23 21:09:00,
2013-05-23 17:14:00,66.4,65.2,29.72,ENE,59,0.0,0.0,96,0.06,RA,FEW,0.06,69.0,WeatherDisplay:10.37,2013-05-23 21:14:00,
2013-05-23 17:19:00,66.4,65.5,29.72,ENE,59,0.0,0.0,97,0.06,RA,FEW,0.06,69.0,WeatherDisplay:10.37,2013-05-23 21:19:00,
2013-05-23 17:24:00,66.4,65.5,29.71,ENE,59,0.0,0.0,97,0.06,BKN,FEW,0.06,51.0,WeatherDisplay:10.37,2013-05-23 21:24:00,
2013-05-23 17:29:00,66.6,65.7,29.71,ENE,59,0.1,1.0,97,0.07,RA,FEW,0.07,49.0,WeatherDisplay:10.37,2013-05-23 21:29:00,
2013-05-23 17:34:00,66.7,65.8,29.71,NW,319,1.8,3.5,97,0.07,RA,FEW,0.07,46.0,WeatherDisplay:10.37,2013-05-23 21:34:00,
2013-05-23 17:39:00,66.7,65.8,29.71,East,92,0.0,2.3,97,0.06,BKN,FEW,0.07,46.0,WeatherDisplay:10.37,2013-05-23 21:39:00,
2013-05-23 17:44:00,66.8,66.2,29.71,East,92,0.1,1.2,98,0.06,BKN,FEW,0.07,42.0,WeatherDisplay:10.37,2013-05-23 21:44:00,
2013-05-23 17:49:00,67.0,66.4,29.71,East,92,0.0,2.3,98,0.06,RA,FEW,0.08,40.0,WeatherDisplay:10.37,2013-05-23 21:49:00,
2013-05-23 17:54:00,67.1,66.5,29.70,East,88,0.3,2.3,98,0.06,RA,FEW,0.08,42.0,WeatherDisplay:10.37,2013-05-23 21:54:00,
2013-05-23 17:59:00,67.0,66.4,29.70,ESE,103,4.5,9.2,98,0.05,BKN,FEW,0.08,53.0,WeatherDisplay:10.37,2013-05-23 21:59:00,
2013-05-23 18:04:00,66.9,66.3,29.70,ESE,103,0.0,1.2,98,0.04,BKN,FEW,0.08,58.0,WeatherDisplay:10.37,2013-05-23 22:04:00,
2013-05-23 18:09:00,66.9,66.3,29.71,ENE,66,0.6,2.3,98,0.03,BKN,FEW,0.08,65.0,WeatherDisplay:10.37,2013-05-23 22:09:00,
2013-05-23 18:14:00,67.0,66.4,29.71,ENE,66,0.0,0.0,98,0.02,BKN,FEW,0.08,62.0,WeatherDisplay:10.37,2013-05-23 22:14:00,
2013-05-23 18:19:00,66.9,66.3,29.71,ENE,63,0.3,3.5,98,0.02,BKN,FEW,0.08,67.0,WeatherDisplay:10.37,2013-05-23 22:19:00,
2013-05-23 18:24:00,67.0,66.4,29.70,ENE,63,0.0,0.0,98,0.02,BKN,FEW,0.08,70.0,WeatherDisplay:10.37,2013-05-23 22:24:00,
2013-05-23 18:29:00,67.0,66.4,29.70,ENE,63,0.0,3.5,98,0.01,BKN,FEW,0.08,60.0,WeatherDisplay:10.37,2013-05-23 22:29:00,
2013-05-23 18:34:00,66.9,66.3,29.70,ENE,63,0.1,2.3,98,0.01,BKN,FEW,0.08,77.0,WeatherDisplay:10.37,2013-05-23 22:34:00,
2013-05-23 18:39:00,66.9,66.3,29.70,ENE,63,0.1,1.2,98,0.01,BKN,FEW,0.08,83.0,WeatherDisplay:10.37,2013-05-23 22:39:00,
2013-05-23 18:44:00,67.0,66.4,29.70,West,273,0.2,1.2,98,0.01,BKN,FEW,0.08,84.0,WeatherDisplay:10.37,2013-05-23 22:44:00,
2013-05-23 18:49:00,67.0,66.4,29.70,West,274,0.0,0.0,98,0.00,SCT,FEW,0.08,100.0,WeatherDisplay:10.37,2013-05-23 22:49:00,
2013-05-23 18:54:00,67.0,66.4,29.70,ENE,78,2.2,3.5,98,0.00,BKN,FEW,0.08,67.0,WeatherDisplay:10.37,2013-05-23 22:54:00,
2013-05-23 18:59:00,67.1,66.5,29.70,ENE,78,0.1,1.0,98,0.00,BKN,FEW,0.08,67.0,WeatherDisplay:10.37,2013-05-23 22:59:00,
2013-05-23 19:04:00,67.1,66.5,29.70,East,81,0.1,3.5,98,0.00,BKN,FEW,0.08,65.0,WeatherDisplay:10.37,2013-05-23 23:04:00,
2013-05-23 19:09:00,67.0,66.4,29.70,East,79,0.0,1.2,98,0.00,SCT,FEW,0.08,62.0,WeatherDisplay:10.37,2013-05-23 23:09:00,
2013-05-23 19:14:00,67.0,66.4,29.70,East,94,0.1,0.0,98,0.00,BKN,FEW,0.08,54.0,WeatherDisplay:10.37,2013-05-23 23:14:00,
2013-05-23 19:19:00,67.0,66.4,29.70,ESE,111,0.6,5.8,98,0.00,SCT,FEW,0.08,49.0,WeatherDisplay:10.37,2013-05-23 23:19:00,
2013-05-23 19:24:00,66.9,66.3,29.70,SSE,161,0.0,3.5,98,0.00,BKN,FEW,0.08,30.0,WeatherDisplay:10.37,2013-05-23 23:24:00,
2013-05-23 19:29:00,66.7,66.1,29.70,SSE,163,0.1,2.3,98,0.00,BKN,FEW,0.08,28.0,WeatherDisplay:10.37,2013-05-23 23:29:00,
2013-05-23 19:34:00,66.8,66.2,29.70,East,90,0.0,2.3,98,0.00,BKN,FEW,0.08,21.0,WeatherDisplay:10.37,2013-05-23 23:34:00,
2013-05-23 19:39:00,66.8,66.2,29.70,ENE,65,2.2,3.5,98,0.00,BKN,FEW,0.08,12.0,WeatherDisplay:10.37,2013-05-23 23:39:00,
2013-05-23 19:44:00,66.7,66.1,29.70,East,88,0.0,0.0,98,0.00,BKN,FEW,0.08,9.0,WeatherDisplay:10.37,2013-05-23 23:44:00,
2013-05-23 19:49:00,66.8,66.2,29.70,East,84,1.0,3.5,98,0.00,BKN,FEW,0.08,5.0,WeatherDisplay:10.37,2013-05-23 23:49:00,
2013-05-23 19:54:00,66.7,66.1,29.70,East,83,0.1,2.3,98,0.00,CLR,FEW,0.08,0.0,WeatherDisplay:10.37,2013-05-23 23:54:00,
2013-05-23 19:59:00,66.5,65.9,29.70,East,83,0.2,1.0,98,0.00,CLR,FEW,0.08,0.0,WeatherDisplay:10.37,2013-05-23 23:59:00,
2013-05-23 20:04:00,66.6,66.0,29.70,East,83,0.2,1.2,98,0.00,CLR,FEW,0.08,0.0,WeatherDisplay:10.37,2013-05-24 00:04:00,
2013-05-23 20:09:00,66.6,66.0,29.70,East,84,0.0,0.0,98,0.00,CLR,FEW,0.08,0.0,WeatherDisplay:10.37,2013-05-24 00:09:00,
2013-05-23 20:14:00,66.5,65.9,29.70,East,84,0.0,0.0,98,0.03,RA,FEW,0.12,0.0,WeatherDisplay:10.37,2013-05-24 00:14:00,
2013-05-23 20:19:00,66.5,65.9,29.70,East,84,0.0,0.0,98,0.04,RA,FEW,0.12,0.0,WeatherDisplay:10.37,2013-05-24 00:19:00,
2013-05-23 20:24:00,66.5,65.9,29.70,East,84,0.0,1.2,98,0.04,RA,FEW,0.12,0.0,WeatherDisplay:10.37,2013-05-24 00:24:00,
2013-05-23 20:29:00,66.4,65.8,29.70,East,84,0.0,0.0,98,0.04,CLR,FEW,0.12,0.0,WeatherDisplay:10.37,2013-05-24 00:29:00,
2013-05-23 20:35:00,66.5,65.9,29.70,NE,53,0.1,3.5,98,0.04,CLR,FEW,0.12,0.0,WeatherDisplay:10.37,2013-05-24 00:35:00,
2013-05-23 20:40:00,66.4,65.8,29.70,NE,53,0.0,0.0,98,0.04,CLR,FEW,0.12,0.0,WeatherDisplay:10.37,2013-05-24 00:40:00,
2013-05-23 20:45:00,66.5,65.9,29.70,NE,53,0.0,1.2,98,0.04,CLR,FEW,0.12,0.0,WeatherDisplay:10.37,2013-05-24 00:45:00,
2013-05-23 20:50:00,66.5,65.9,29.70,NE,53,0.0,1.0,98,0.00, +SHSN,FEW,0.12,0.0,WeatherDisplay:10.37,2013-05-24 00:50:00,
2013-05-23 20:55:00,66.5,65.9,29.69,NE,42,0.0,3.0,98,0.00, +SHSN,FEW,0.12,0.0,WeatherDisplay:10.37,2013-05-24 00:55:00,
2013-05-23 21:00:00,66.5,65.9,29.69,WNW,286,0.0,0.0,98,0.04,CLR,FEW,0.12,0.0,WeatherDisplay:10.37,2013-05-24 01:00:00,
2013-05-23 21:05:00,66.4,65.8,29.69,WNW,286,0.0,0.0,98,0.04,CLR,FEW,0.12,0.0,WeatherDisplay:10.37,2013-05-24 01:05:00,
2013-05-23 21:10:00,66.4,65.8,29.69,NNW,337,0.0,0.0,98,0.04,CLR,FEW,0.12,0.0,WeatherDisplay:10.37,2013-05-24 01:10:00,
2013-05-23 21:15:00,66.4,65.8,29.69,NNW,338,0.0,2.0,98,0.00, +SHSN,FEW,0.12,0.0,WeatherDisplay:10.37,2013-05-24 01:15:00,
2013-05-23 21:20:00,66.4,65.8,29.69,North,357,0.0,2.0,98,0.00, +SHSN,FEW,0.12,0.0,WeatherDisplay:10.37,2013-05-24 01:20:00,
2013-05-23 21:25:00,66.3,65.7,29.69,NE,35,0.0,2.0,98,0.00, +SHSN,FEW,0.12,0.0,WeatherDisplay:10.37,2013-05-24 01:25:00,
2013-05-23 21:30:00,66.3,66.0,29.69,NE,36,0.4,1.2,99,0.00,CLR,FEW,0.12,0.0,WeatherDisplay:10.37,2013-05-24 01:30:00,
2013-05-23 21:35:00,66.3,66.0,29.69,ENE,65,0.5,2.3,99,0.00,CLR,FEW,0.12,0.0,WeatherDisplay:10.37,2013-05-24 01:35:00,
2013-05-23 21:40:00,66.2,65.9,29.69,ENE,64,0.0,3.0,99,0.00, +SHSN,FEW,0.12,0.0,WeatherDisplay:10.37,2013-05-24 01:40:00,
2013-05-23 21:45:00,66.2,65.9,29.69,ENE,67,0.2,0.0,99,0.00,CLR,FEW,0.12,0.0,WeatherDisplay:10.37,2013-05-24 01:45:00,
2013-05-23 21:50:00,66.1,65.8,29.69,ENE,64,0.0,3.0,99,0.00, +SHSN,FEW,0.12,0.0,WeatherDisplay:10.37,2013-05-24 01:50:00,
2013-05-23 21:55:00,66.1,65.8,29.69,North,3,0.0,3.0,99,0.00, +SHSN,FEW,0.12,0.0,WeatherDisplay:10.37,2013-05-24 01:55:00,
2013-05-23 22:00:00,66.0,65.7,29.69,NNW,331,0.0,2.3,99,0.00,CLR,FEW,0.12,0.0,WeatherDisplay:10.37,2013-05-24 02:00:00,
2013-05-23 22:05:00,66.0,65.4,29.69,North,355,0.2,1.2,98,0.00,CLR,FEW,0.12,0.0,WeatherDisplay:10.37,2013-05-24 02:05:00,
2013-05-23 22:10:00,65.9,65.3,29.69,North,355,0.0,2.0,98,0.00, +SHSN,FEW,0.12,0.0,WeatherDisplay:10.37,2013-05-24 02:10:00,
2013-05-23 22:15:00,65.8,65.2,29.69,NE,35,1.0,3.0,98,0.00, +SHSN,FEW,0.12,0.0,WeatherDisplay:10.37,2013-05-24 02:15:00,
2013-05-23 22:20:00,65.8,65.2,29.69,NE,50,0.0,3.0,98,0.00, +SHSN,FEW,0.12,0.0,WeatherDisplay:10.37,2013-05-24 02:20:00,
2013-05-23 22:25:00,65.8,65.2,29.69,NE,56,0.0,0.0,98,0.00, +SHSN,FEW,0.12,0.0,WeatherDisplay:10.37,2013-05-24 02:25:00,
2013-05-23 22:30:00,65.7,65.1,29.69,ENE,57,0.0,0.0,98,0.00,CLR,FEW,0.12,0.0,WeatherDisplay:10.37,2013-05-24 02:30:00,
2013-05-23 22:35:00,65.7,65.1,29.69,ENE,60,0.0,3.0,98,0.00, +SHSN,FEW,0.12,0.0,WeatherDisplay:10.37,2013-05-24 02:35:00,
2013-05-23 22:40:00,65.7,65.1,29.69,ENE,73,2.0,5.0,98,0.00, +SHSN,FEW,0.12,0.0,WeatherDisplay:10.37,2013-05-24 02:40:00,
2013-05-23 22:45:00,65.8,65.2,29.69,ENE,59,0.0,2.3,98,0.00,CLR,FEW,0.12,0.0,WeatherDisplay:10.37,2013-05-24 02:45:00,
2013-05-23 22:50:00,65.8,65.2,29.69,ENE,69,0.0,13.0,98,0.00, +SHSN,FEW,0.12,0.0,WeatherDisplay:10.37,2013-05-24 02:50:00,
2013-05-23 22:55:00,65.7,65.1,29.69,NE,43,1.0,2.0,98,0.00, +SHSN,FEW,0.12,0.0,WeatherDisplay:10.37,2013-05-24 02:55:00,
2013-05-23 23:00:00,65.7,65.1,29.69,NW,318,0.6,3.0,98,0.00,CLR,FEW,0.12,0.0,WeatherDisplay:10.37,2013-05-24 03:00:00,
2013-05-23 23:05:00,65.7,65.1,29.69,NNW,338,0.0,3.0,98,0.00, +SHSN,FEW,0.12,0.0,WeatherDisplay:10.37,2013-05-24 03:05:00,
2013-05-23 23:10:00,65.7,65.1,29.69,NE,42,1.0,5.0,98,0.00, +SHSN,FEW,0.12,0.0,WeatherDisplay:10.37,2013-05-24 03:10:00,
2013-05-23 23:15:00,65.7,65.1,29.69,East,83,0.0,4.0,98,0.01, +SHSN,FEW,0.13,0.0,WeatherDisplay:10.37,2013-05-24 03:15:00,
2013-05-23 23:20:00,65.6,65.0,29.69,East,84,0.0,2.0,98,0.01, +SHSN,FEW,0.13,0.0,WeatherDisplay:10.37,2013-05-24 03:20:00,
2013-05-23 23:25:00,65.6,65.0,29.69,East,84,0.0,1.0,98,0.00, +SHSN,FEW,0.13,0.0,WeatherDisplay:10.37,2013-05-24 03:25:00,
2013-05-23 23:30:00,65.6,65.0,29.69,ESE,103,0.2,3.5,98,0.01,CLR,FEW,0.13,0.0,WeatherDisplay:10.37,2013-05-24 03:30:00,
2013-05-23 23:35:00,65.5,64.9,29.69,ESE,103,0.0,1.0,98,0.00, +SHSN,FEW,0.13,0.0,WeatherDisplay:10.37,2013-05-24 03:35:00,
2013-05-23 23:40:00,65.5,64.9,29.68,ESE,103,0.0,1.0,98,0.00, +SHSN,FEW,0.13,0.0,WeatherDisplay:10.37,2013-05-24 03:40:00,
2013-05-23 23:45:00,65.5,64.9,29.68,ENE,71,0.0,3.0,98,0.00, +SHSN,FEW,0.13,0.0,WeatherDisplay:10.37,2013-05-24 03:45:00,
2013-05-23 23:50:00,65.4,64.8,29.68,ENE,64,1.0,3.0,98,0.00, +SHSN,FEW,0.14,0.0,WeatherDisplay:10.37,2013-05-24 03:50:00,
2013-05-23 23:55:00,65.4,64.8,29.68,ENE,74,0.4,2.0,98,0.02,RA,FEW,0.14,0.0,WeatherDisplay:10.37,2013-05-24 03:55:00,